Overview Statistics Trail Chart Weather Telemetry Raw packets
 

This is the latest recevied weather packets stored in our database for station/object KN6CRX-10. If no packets are shown the sender has not sent any weather packets the latest 10 day(s).

<< 1 2 3 4 5 6 7 >>
Time Temp. Humidity Pressure Rain* Wind** Luminosity Snow
1788418497 15.56° C 38% 1015.2 hPa 0 mm - 0 W/m² -
1788418195 15.56° C 36% 1015.4 hPa 0 mm - 0 W/m² -
1788417890 15.56° C 36% 1015.4 hPa 0 mm - 0 W/m² -
1788417586 15° C 37% 1015.2 hPa 0 mm - 0 W/m² -
1788417281 15° C 39% 1015.2 hPa 0 mm - 0 W/m² -
1788416977 15° C 40% 1015.2 hPa 0 mm - 0 W/m² -
1788416677 15° C 39% 1015.4 hPa 0 mm - 0 W/m² -
1788416372 15° C 39% 1015.4 hPa 0 mm - 0 W/m² -
1788416072 15° C 39% 1015.2 hPa 0 mm - 0 W/m² -
1788415768 15.56° C 39% 1015.1 hPa 0 mm - 0 W/m² -
1788415467 15.56° C 37% 1015.1 hPa 0 mm - 0 W/m² -
1788415166 15.56° C 36% 1015.2 hPa 0 mm - 0 W/m² -
1788414865 15.56° C 36% 1015.3 hPa 0 mm - 0 W/m² -
1788414559 15.56° C 36% 1015.1 hPa 0 mm - 0 W/m² -
1788414259 15.56° C 36% 1015.2 hPa 0 mm - 0 W/m² -
1788413956 15.56° C 35% 1015.2 hPa 0 mm - 0 W/m² -
1788413656 16.11° C 35% 1015.2 hPa 0 mm - 0 W/m² -
1788413352 16.11° C 33% 1015.3 hPa 0 mm - 0 W/m² -
1788413048 16.67° C 32% 1015.4 hPa 0 mm - 0 W/m² -
1788412743 16.67° C 31% 1015.1 hPa 0 mm - 0 W/m² -
1788412438 16.67° C 30% 1015.1 hPa 0 mm - 0 W/m² -
1788412134 17.22° C 30% 1015.5 hPa 0 mm - 0 W/m² -
1788411832 16.67° C 30% 1015.4 hPa 0 mm - 0 W/m² -
1788411527 16.67° C 32% 1015.4 hPa 0 mm - 0 W/m² -
1788411223 17.22° C 31% 1015.6 hPa 0 mm - 0 W/m² -

* Rain latest hour (hover to see other rain measurements)
** Current wind speed in m/s (hover to see current wind gust speed)